Time,TemperatureF,DewpointF,PressureIn,WindDirection,WindDirectionDegrees,WindSpeedMPH,WindSpeedGustMPH,Humidity,HourlyPrecipIn,Conditions,Clouds,dailyrainin,SoftwareType,DateUTC
2013-06-03 00:04:00,78.1,69.5,29.63,NW,315,0.0,0.0,75,0.00,,---,0.00,VWS V13.01,2013-06-03 04:04:00,
2013-06-03 00:09:00,77.9,69.3,29.63,NW,315,0.0,0.0,75,0.00,,---,0.00,VWS V13.01,2013-06-03 04:09:00,
2013-06-03 00:14:00,77.7,69.2,29.63,NW,315,0.0,0.0,75,0.00,,---,0.00,VWS V13.01,2013-06-03 04:14:00,
2013-06-03 00:24:00,77.7,69.2,29.63,NW,315,0.0,0.0,75,0.00,,---,0.00,VWS V13.01,2013-06-03 04:24:00,
2013-06-03 00:29:00,77.5,69.4,29.63,NW,315,0.0,0.0,76,0.00,,---,0.00,VWS V13.01,2013-06-03 04:29:00,
2013-06-03 00:34:00,77.5,69.4,29.63,NW,315,0.0,0.0,76,0.00,,---,0.00,VWS V13.01,2013-06-03 04:34:00,
2013-06-03 00:44:00,77.5,69.4,29.63,NW,315,0.0,0.0,76,0.00,,---,0.00,VWS V13.01,2013-06-03 04:44:00,
2013-06-03 00:49:00,77.4,69.2,29.62,NW,315,0.0,0.0,76,0.00,,---,0.00,VWS V13.01,2013-06-03 04:49:00,
2013-06-03 00:59:00,77.2,69.0,29.62,NW,315,0.0,0.0,76,0.00,,---,0.00,VWS V13.01,2013-06-03 04:59:00,
2013-06-03 01:09:00,77.0,68.9,29.62,NW,315,0.0,0.0,76,0.00,,---,0.00,VWS V13.01,2013-06-03 05:09:00,
2013-06-03 01:14:00,76.8,69.1,29.61,NW,315,0.0,0.0,77,0.00,,---,0.00,VWS V13.01,2013-06-03 05:14:00,
2013-06-03 01:24:00,76.8,69.1,29.60,NW,315,0.0,0.0,77,0.00,,---,0.00,VWS V13.01,2013-06-03 05:24:00,
2013-06-03 01:34:00,76.8,69.1,29.60,South,180,0.0,0.0,77,0.00,,---,0.00,VWS V13.01,2013-06-03 05:34:00,
2013-06-03 01:44:00,77.0,69.2,29.60,South,180,0.0,0.0,77,0.00,,---,0.00,VWS V13.01,2013-06-03 05:44:00,
2013-06-03 01:54:00,77.2,69.4,29.60,South,180,0.0,0.0,77,0.00,,---,0.00,VWS V13.01,2013-06-03 05:54:00,
2013-06-03 02:04:00,77.2,69.4,29.60,South,180,0.0,0.0,77,0.00,,---,0.00,VWS V13.01,2013-06-03 06:04:00,
2013-06-03 02:09:00,77.2,69.4,29.60,South,180,0.0,0.0,77,0.00,,---,0.00,VWS V13.01,2013-06-03 06:09:00,
2013-06-03 02:14:00,77.2,69.4,29.60,South,180,0.0,0.0,77,0.00,,---,0.00,VWS V13.01,2013-06-03 06:14:00,
2013-06-03 02:24:00,77.0,69.2,29.60,South,180,0.0,0.0,77,0.00,,---,0.00,VWS V13.01,2013-06-03 06:24:00,
2013-06-03 02:29:00,76.8,69.1,29.60,South,180,0.0,0.0,77,0.00,,---,0.00,VWS V13.01,2013-06-03 06:29:00,
2013-06-03 02:34:00,76.8,69.1,29.60,South,180,0.0,0.0,77,0.00,,---,0.00,VWS V13.01,2013-06-03 06:34:00,
2013-06-03 02:44:00,76.8,69.1,29.59,South,180,0.0,0.0,77,0.00,,---,0.00,VWS V13.01,2013-06-03 06:44:00,
2013-06-03 02:54:00,76.8,69.1,29.58,South,180,0.0,0.0,77,0.00,,---,0.00,VWS V13.01,2013-06-03 06:54:00,
2013-06-03 03:04:00,76.6,68.9,29.58,South,180,0.0,0.0,77,0.00,,---,0.00,VWS V13.01,2013-06-03 07:04:00,
2013-06-03 03:14:00,76.5,68.7,29.58,South,180,0.0,0.0,77,0.00,,---,0.00,VWS V13.01,2013-06-03 07:14:00,
2013-06-03 03:24:00,76.3,68.6,29.57,South,180,0.0,0.0,77,0.00,,---,0.00,VWS V13.01,2013-06-03 07:24:00,
2013-06-03 03:34:00,76.1,68.4,29.57,South,180,0.0,0.0,77,0.00,,---,0.00,VWS V13.01,2013-06-03 07:34:00,
2013-06-03 03:39:00,75.9,68.2,29.57,South,180,0.0,0.0,77,0.00,,---,0.00,VWS V13.01,2013-06-03 07:39:00,
2013-06-03 03:49:00,75.9,68.2,29.57,South,180,0.0,0.0,77,0.00,,---,0.00,VWS V13.01,2013-06-03 07:49:00,
2013-06-03 03:54:00,75.9,68.6,29.57,South,180,0.0,0.0,78,0.00,,---,0.00,VWS V13.01,2013-06-03 07:54:00,
2013-06-03 04:04:00,75.9,68.6,29.57,South,180,0.0,0.0,78,0.00,,---,0.00,VWS V13.01,2013-06-03 08:04:00,
2013-06-03 04:09:00,75.7,68.4,29.57,South,180,0.0,0.0,78,0.00,,---,0.00,VWS V13.01,2013-06-03 08:09:00,
2013-06-03 04:19:00,75.7,68.4,29.56,South,180,0.0,0.0,78,0.00,,---,0.00,VWS V13.01,2013-06-03 08:19:00,
2013-06-03 04:29:00,75.6,68.2,29.57,South,180,0.0,0.0,78,0.00,,---,0.00,VWS V13.01,2013-06-03 08:29:00,
2013-06-03 04:39:00,75.6,68.2,29.56,South,180,0.0,0.0,78,0.00,,---,0.00,VWS V13.01,2013-06-03 08:39:00,
2013-06-03 04:44:00,75.6,68.2,29.57,South,180,0.0,0.0,78,0.00,,---,0.00,VWS V13.01,2013-06-03 08:44:00,
2013-06-03 04:54:00,75.4,68.1,29.57,South,180,0.0,0.0,78,0.00,,---,0.00,VWS V13.01,2013-06-03 08:54:00,
2013-06-03 05:04:00,75.4,68.1,29.57,South,180,0.0,0.0,78,0.00,,---,0.00,VWS V13.01,2013-06-03 09:04:00,
2013-06-03 05:09:00,75.4,68.1,29.58,South,180,0.0,0.0,78,0.00,,---,0.00,VWS V13.01,2013-06-03 09:09:00,
2013-06-03 05:19:00,75.4,68.1,29.58,South,180,0.0,0.0,78,0.00,,---,0.00,VWS V13.01,2013-06-03 09:19:00,
2013-06-03 05:24:00,75.4,68.4,29.58,South,180,0.0,0.0,79,0.00,,---,0.00,VWS V13.01,2013-06-03 09:24:00,
2013-06-03 05:34:00,75.4,68.4,29.58,South,180,0.0,0.0,79,0.00,,---,0.00,VWS V13.01,2013-06-03 09:34:00,
2013-06-03 05:44:00,75.2,68.2,29.58,South,180,0.0,0.0,79,0.00,,---,0.00,VWS V13.01,2013-06-03 09:44:00,
2013-06-03 05:54:00,75.0,68.1,29.58,South,180,0.0,0.0,79,0.00,,---,0.00,VWS V13.01,2013-06-03 09:54:00,
2013-06-03 06:04:00,75.0,67.7,29.59,South,180,0.0,0.0,78,0.00,,---,0.00,VWS V13.01,2013-06-03 10:04:00,
2013-06-03 06:09:00,74.8,67.5,29.59,South,180,0.0,0.0,78,0.00,,---,0.00,VWS V13.01,2013-06-03 10:09:00,
2013-06-03 06:19:00,74.8,67.5,29.59,South,180,0.0,0.0,78,0.00,,---,0.00,VWS V13.01,2013-06-03 10:19:00,
2013-06-03 06:29:00,74.8,67.9,29.59,South,180,0.0,0.0,79,0.00,,---,0.00,VWS V13.01,2013-06-03 10:29:00,
2013-06-03 06:39:00,74.8,67.9,29.60,South,180,0.0,0.0,79,0.00,,---,0.00,VWS V13.01,2013-06-03 10:39:00,
2013-06-03 06:44:00,74.5,67.6,29.60,South,180,0.0,0.0,79,0.00,,---,0.00,VWS V13.01,2013-06-03 10:44:00,
2013-06-03 06:54:00,74.7,67.7,29.60,South,180,0.0,0.0,79,0.00,,---,0.00,VWS V13.01,2013-06-03 10:54:00,
2013-06-03 06:59:00,75.0,68.1,29.60,South,180,0.0,0.0,79,0.00,,---,0.00,VWS V13.01,2013-06-03 10:59:00,
2013-06-03 07:09:00,75.4,68.4,29.60,South,180,0.0,0.0,79,0.00,,---,0.00,VWS V13.01,2013-06-03 11:09:00,
2013-06-03 07:19:00,76.1,69.1,29.60,South,180,0.0,0.0,79,0.00,,---,0.00,VWS V13.01,2013-06-03 11:19:00,
2013-06-03 07:24:00,76.3,69.3,29.60,South,180,0.0,0.0,79,0.00,,---,0.00,VWS V13.01,2013-06-03 11:24:00,
2013-06-03 07:34:00,76.6,69.3,29.61,South,180,0.0,0.0,78,0.00,,---,0.00,VWS V13.01,2013-06-03 11:34:00,
2013-06-03 07:39:00,77.0,69.6,29.61,South,180,0.0,0.0,78,0.00,,---,0.00,VWS V13.01,2013-06-03 11:39:00,
2013-06-03 07:49:00,77.4,70.0,29.61,South,180,0.0,0.0,78,0.00,,---,0.00,VWS V13.01,2013-06-03 11:49:00,
2013-06-03 07:54:00,77.4,69.6,29.61,South,180,0.0,0.0,77,0.00,,---,0.00,VWS V13.01,2013-06-03 11:54:00,
2013-06-03 08:04:00,77.7,70.3,29.61,WSW,248,0.0,0.0,78,0.00,,---,0.00,VWS V13.01,2013-06-03 12:04:00,
2013-06-03 08:09:00,78.4,71.0,29.61,West,270,0.0,0.0,78,0.00,,---,0.00,VWS V13.01,2013-06-03 12:09:00,
2013-06-03 08:19:00,79.0,71.2,29.61,West,270,0.0,0.0,77,0.00,,---,0.00,VWS V13.01,2013-06-03 12:19:00,
2013-06-03 08:29:00,79.3,71.5,29.62,West,270,0.0,0.0,77,0.00,,---,0.00,VWS V13.01,2013-06-03 12:29:00,
2013-06-03 08:39:00,79.5,71.3,29.62,SW,225,0.0,2.0,76,0.00,,---,0.00,VWS V13.01,2013-06-03 12:39:00,
2013-06-03 08:49:00,80.1,71.8,29.62,South,180,4.0,7.4,76,0.00,,---,0.00,VWS V13.01,2013-06-03 12:49:00,
2013-06-03 08:59:00,81.0,72.3,29.62,West,270,0.7,0.7,75,0.00,,---,0.00,VWS V13.01,2013-06-03 12:59:00,
2013-06-03 09:09:00,81.7,72.6,29.62,South,180,1.1,1.1,74,0.00,,---,0.00,VWS V13.01,2013-06-03 13:09:00,
2013-06-03 09:19:00,82.8,73.2,29.61,SW,225,0.0,4.3,73,0.00,,---,0.00,VWS V13.01,2013-06-03 13:19:00,
2013-06-03 09:29:00,82.9,73.4,29.61,WSW,248,7.2,7.6,73,0.00,,---,0.00,VWS V13.01,2013-06-03 13:29:00,
2013-06-03 09:39:00,83.3,73.3,29.61,SSE,158,2.5,6.5,72,0.00,,---,0.00,VWS V13.01,2013-06-03 13:39:00,
2013-06-03 09:49:00,83.8,73.8,29.61,SSW,202,5.1,7.2,72,0.00,,---,0.00,VWS V13.01,2013-06-03 13:49:00,
2013-06-03 09:59:00,84.0,73.6,29.61,South,180,2.9,2.9,71,0.00,,---,0.00,VWS V13.01,2013-06-03 13:59:00,
2013-06-03 10:04:00,84.0,73.6,29.61,SSE,158,1.1,2.9,71,0.00,,---,0.00,VWS V13.01,2013-06-03 14:04:00,
2013-06-03 10:14:00,84.4,73.9,29.61,SE,135,4.9,4.9,71,0.00,,---,0.00,VWS V13.01,2013-06-03 14:14:00,
2013-06-03 10:19:00,84.6,74.1,29.61,East,90,1.6,4.9,71,0.00,,---,0.00,VWS V13.01,2013-06-03 14:19:00,
2013-06-03 10:24:00,85.3,74.4,29.61,ESE,112,2.2,2.2,70,0.00,,---,0.00,VWS V13.01,2013-06-03 14:24:00,
2013-06-03 10:34:00,85.6,74.3,29.62,SE,135,2.9,9.0,69,0.00,,---,0.00,VWS V13.01,2013-06-03 14:34:00,
2013-06-03 10:39:00,85.6,74.3,29.62,ESE,112,8.7,8.7,69,0.00,,---,0.00,VWS V13.01,2013-06-03 14:39:00,
2013-06-03 10:44:00,85.6,74.3,29.62,SSE,158,2.9,8.7,69,0.00,,---,0.00,VWS V13.01,2013-06-03 14:44:00,
2013-06-03 10:54:00,85.6,73.9,29.63,SW,225,6.0,6.7,68,0.00,,---,0.00,VWS V13.01,2013-06-03 14:54:00,
2013-06-03 11:04:00,84.6,72.8,29.62,WSW,248,0.0,8.7,68,0.00,,---,0.00,VWS V13.01,2013-06-03 15:04:00,
2013-06-03 11:09:00,84.0,72.8,29.63,SW,225,1.6,1.6,69,0.00,,---,0.00,VWS V13.01,2013-06-03 15:09:00,
2013-06-03 11:14:00,83.8,72.6,29.63,South,180,0.4,1.6,69,0.00,,---,0.00,VWS V13.01,2013-06-03 15:14:00,
2013-06-03 11:24:00,84.0,73.2,29.63,WSW,248,0.0,0.0,70,0.00,,---,0.00,VWS V13.01,2013-06-03 15:24:00,
2013-06-03 11:34:00,84.0,73.6,29.63,SSE,158,2.0,4.9,71,0.00,,---,0.00,VWS V13.01,2013-06-03 15:34:00,
2013-06-03 11:44:00,84.9,74.1,29.63,SE,135,0.0,4.7,70,0.00,,---,0.00,VWS V13.01,2013-06-03 15:44:00,
2013-06-03 11:54:00,85.8,74.5,29.63,SSE,158,4.9,5.1,69,0.00,,---,0.00,VWS V13.01,2013-06-03 15:54:00,
2013-06-03 11:59:00,85.8,74.5,29.63,SE,135,5.6,5.6,69,0.00,,---,0.00,VWS V13.01,2013-06-03 15:59:00,
2013-06-03 12:04:00,85.6,74.3,29.63,SSE,158,3.6,5.6,69,0.00,,---,0.00,VWS V13.01,2013-06-03 16:04:00,
2013-06-03 12:09:00,85.6,74.3,29.62,SSE,158,3.6,3.6,69,0.00,,---,0.00,VWS V13.01,2013-06-03 16:09:00,
2013-06-03 12:19:00,85.8,73.6,29.62,SSE,158,6.9,6.9,67,0.00,,---,0.00,VWS V13.01,2013-06-03 16:19:00,
2013-06-03 12:24:00,86.2,73.5,29.62,ESE,112,4.5,6.9,66,0.00,,---,0.00,VWS V13.01,2013-06-03 16:24:00,
2013-06-03 12:34:00,86.5,73.8,29.62,SSE,158,2.9,5.1,66,0.00,,---,0.00,VWS V13.01,2013-06-03 16:34:00,
2013-06-03 12:39:00,86.7,73.6,29.62,ESE,112,6.7,6.7,65,0.00,,---,0.00,VWS V13.01,2013-06-03 16:39:00,
2013-06-03 12:49:00,87.4,74.7,29.61,South,180,5.4,9.4,66,0.00,,---,0.00,VWS V13.01,2013-06-03 16:49:00,
2013-06-03 12:54:00,88.3,75.1,29.61,SSE,158,7.6,9.0,65,0.00,,---,0.00,VWS V13.01,2013-06-03 16:54:00,
2013-06-03 12:59:00,88.9,75.1,29.61,ESE,112,4.7,7.6,64,0.00,,---,0.00,VWS V13.01,2013-06-03 16:59:00,
2013-06-03 13:09:00,89.4,75.2,29.61,SSE,158,6.3,6.3,63,0.00,,---,0.00,VWS V13.01,2013-06-03 17:09:00,
2013-06-03 13:14:00,89.4,75.2,29.61,SSE,158,6.3,6.3,63,0.00,,---,0.00,VWS V13.01,2013-06-03 17:14:00,
2013-06-03 13:19:00,89.8,74.6,29.60,ESE,112,7.8,7.8,61,0.00,,---,0.00,VWS V13.01,2013-06-03 17:19:00,
2013-06-03 13:24:00,89.6,74.9,29.60,SE,135,3.1,7.8,62,0.00,,---,0.00,VWS V13.01,2013-06-03 17:24:00,
2013-06-03 13:34:00,89.8,75.0,29.60,SE,135,2.2,7.6,62,0.00,,---,0.00,VWS V13.01,2013-06-03 17:34:00,
2013-06-03 13:44:00,90.1,75.4,29.60,SSE,158,2.9,3.8,62,0.00,,---,0.00,VWS V13.01,2013-06-03 17:44:00,
2013-06-03 13:49:00,90.0,74.7,29.59,SSW,202,6.5,6.5,61,0.00,,---,0.00,VWS V13.01,2013-06-03 17:49:00,
2013-06-03 13:59:00,90.0,74.7,29.59,East,90,11.2,11.2,61,0.00,,---,0.00,VWS V13.01,2013-06-03 17:59:00,
2013-06-03 14:09:00,90.0,75.2,29.59,SSE,158,2.7,5.6,62,0.00,,---,0.00,VWS V13.01,2013-06-03 18:09:00,
2013-06-03 14:14:00,90.0,74.7,29.59,SSE,158,2.7,2.7,61,0.00,,---,0.00,VWS V13.01,2013-06-03 18:14:00,
2013-06-03 14:24:00,89.2,74.5,29.59,ESE,112,8.3,8.3,62,0.00,,---,0.00,VWS V13.01,2013-06-03 18:24:00,
2013-06-03 14:29:00,88.9,74.7,29.59,SE,135,6.5,8.3,63,0.00,,---,0.00,VWS V13.01,2013-06-03 18:29:00,
2013-06-03 14:39:00,87.8,72.7,29.59,SE,135,5.6,8.1,61,0.00,,---,0.00,VWS V13.01,2013-06-03 18:39:00,
2013-06-03 14:49:00,88.5,73.8,29.58,ESE,112,3.8,7.2,62,0.00,,---,0.00,VWS V13.01,2013-06-03 18:49:00,
2013-06-03 14:59:00,89.2,74.5,29.58,WSW,248,2.2,2.2,62,0.00,,---,0.00,VWS V13.01,2013-06-03 18:59:00,
2013-06-03 15:09:00,89.2,74.5,29.58,WSW,248,12.1,12.1,62,0.00,,---,0.00,VWS V13.01,2013-06-03 19:09:00,
2013-06-03 15:19:00,88.3,72.7,29.57,ESE,112,7.6,10.3,60,0.00,,---,0.00,VWS V13.01,2013-06-03 19:19:00,
2013-06-03 15:29:00,87.4,72.3,29.58,East,90,6.3,12.3,61,0.00,,---,0.00,VWS V13.01,2013-06-03 19:29:00,
2013-06-03 15:39:00,86.7,71.7,29.58,SE,135,0.0,8.1,61,0.00,,---,0.00,VWS V13.01,2013-06-03 19:39:00,
2013-06-03 15:49:00,86.7,71.7,29.57,East,90,7.8,7.8,61,0.00,,---,0.00,VWS V13.01,2013-06-03 19:49:00,
2013-06-03 15:54:00,86.5,71.5,29.57,ESE,112,1.3,7.8,61,0.00,,---,0.00,VWS V13.01,2013-06-03 19:54:00,
2013-06-03 16:04:00,86.2,71.6,29.57,ENE,68,7.4,7.6,62,0.00,,---,0.00,VWS V13.01,2013-06-03 20:04:00,
2013-06-03 16:09:00,85.8,71.8,29.56,South,180,6.5,7.4,63,0.00,,---,0.00,VWS V13.01,2013-06-03 20:09:00,
2013-06-03 16:19:00,85.6,72.1,29.56,ESE,112,3.4,5.4,64,0.00,,---,0.00,VWS V13.01,2013-06-03 20:19:00,
2013-06-03 16:29:00,85.8,72.2,29.56,South,180,6.7,6.7,64,0.00,,---,0.00,VWS V13.01,2013-06-03 20:29:00,
2013-06-03 16:39:00,85.6,73.4,29.56,SE,135,3.4,6.7,67,0.00,,---,0.00,VWS V13.01,2013-06-03 20:39:00,
2013-06-03 16:44:00,85.3,73.5,29.57,ENE,68,8.1,8.1,68,0.00,,---,0.00,VWS V13.01,2013-06-03 20:44:00,
2013-06-03 16:54:00,84.6,73.3,29.56,SE,135,2.2,7.2,69,0.00,,---,0.00,VWS V13.01,2013-06-03 20:54:00,
2013-06-03 16:59:00,84.0,73.2,29.57,SE,135,8.1,8.1,70,0.00,,---,0.00,VWS V13.01,2013-06-03 20:59:00,
2013-06-03 17:09:00,84.4,73.5,29.57,SE,135,12.8,12.8,70,0.00,,---,0.00,VWS V13.01,2013-06-03 21:09:00,
2013-06-03 17:19:00,84.6,73.3,29.57,SE,135,8.3,8.3,69,0.00,,---,0.00,VWS V13.01,2013-06-03 21:19:00,
2013-06-03 17:24:00,84.7,73.4,29.57,SSE,158,7.2,8.3,69,0.00,,---,0.00,VWS V13.01,2013-06-03 21:24:00,
2013-06-03 17:34:00,84.7,73.4,29.57,SSE,158,7.2,7.2,69,0.00,,---,0.00,VWS V13.01,2013-06-03 21:34:00,
2013-06-03 17:44:00,84.4,73.1,29.57,South,180,4.7,5.1,69,0.00,,---,0.00,VWS V13.01,2013-06-03 21:44:00,
2013-06-03 17:54:00,83.8,73.0,29.57,SSE,158,7.6,7.6,70,0.00,,---,0.00,VWS V13.01,2013-06-03 21:54:00,
2013-06-03 18:04:00,83.5,73.1,29.57,South,180,10.1,11.0,71,0.00,,---,0.00,VWS V13.01,2013-06-03 22:04:00,
2013-06-03 18:14:00,83.3,72.9,29.57,ESE,112,2.9,10.1,71,0.00,,---,0.00,VWS V13.01,2013-06-03 22:14:00,
2013-06-03 18:19:00,83.3,72.9,29.58,SSW,202,7.4,7.4,71,0.00,,---,0.00,VWS V13.01,2013-06-03 22:19:00,
2013-06-03 18:29:00,82.9,72.6,29.57,SSE,158,13.2,13.2,71,0.00,,---,0.00,VWS V13.01,2013-06-03 22:29:00,
2013-06-03 18:39:00,82.9,72.6,29.57,SSW,202,2.2,7.4,71,0.00,,---,0.00,VWS V13.01,2013-06-03 22:39:00,
2013-06-03 18:44:00,82.8,72.0,29.57,SW,225,6.7,6.7,70,0.00,,---,0.00,VWS V13.01,2013-06-03 22:44:00,
2013-06-03 18:49:00,82.6,71.8,29.57,WSW,248,7.4,7.4,70,0.00,,---,0.00,VWS V13.01,2013-06-03 22:49:00,
2013-06-03 18:59:00,82.0,70.9,29.57,SSE,158,6.7,6.7,69,0.00,,---,0.00,VWS V13.01,2013-06-03 22:59:00,
2013-06-03 19:04:00,82.0,70.9,29.57,SSW,202,12.3,12.3,69,0.00,,---,0.00,VWS V13.01,2013-06-03 23:04:00,
2013-06-03 19:09:00,80.8,70.9,29.57,SSW,202,6.0,12.3,72,0.00,,---,0.00,VWS V13.01,2013-06-03 23:09:00,
2013-06-03 19:19:00,79.9,70.5,29.58,South,180,5.6,7.8,73,0.00,,---,0.00,VWS V13.01,2013-06-03 23:19:00,
2013-06-03 19:24:00,79.9,70.9,29.58,South,180,7.4,7.4,74,0.00,,---,0.00,VWS V13.01,2013-06-03 23:24:00,
2013-06-03 19:34:00,79.0,70.4,29.58,SSE,158,6.7,7.2,75,0.06,,---,0.06,VWS V13.01,2013-06-03 23:34:00,
2013-06-03 19:39:00,79.0,70.4,29.60,SSW,202,0.0,6.7,75,0.06,,---,0.06,VWS V13.01,2013-06-03 23:39:00,
2013-06-03 19:49:00,78.6,70.0,29.60,West,270,0.0,3.8,75,0.06,,---,0.06,VWS V13.01,2013-06-03 23:49:00,
2013-06-03 19:59:00,78.6,70.4,29.60,NNW,338,0.0,0.0,76,0.06,,---,0.06,VWS V13.01,2013-06-03 23:59:00,
2013-06-03 20:04:00,78.6,70.4,29.60,NNW,338,0.0,0.0,76,0.06,,---,0.06,VWS V13.01,2013-06-04 00:04:00,
2013-06-03 20:14:00,78.6,70.4,29.61,NNE,22,2.5,2.5,76,0.08,,---,0.08,VWS V13.01,2013-06-04 00:14:00,
2013-06-03 20:19:00,78.6,70.8,29.61,ENE,68,0.0,2.5,77,0.08,,---,0.08,VWS V13.01,2013-06-04 00:19:00,
2013-06-03 20:29:00,78.4,70.6,29.61,North,0,3.1,3.1,77,0.04,,---,0.10,VWS V13.01,2013-06-04 00:29:00,
2013-06-03 20:39:00,78.4,70.6,29.61,North,0,4.5,4.5,77,0.04,,---,0.10,VWS V13.01,2013-06-04 00:39:00,
2013-06-03 20:44:00,78.1,70.3,29.62,North,0,0.0,4.5,77,0.06,,---,0.12,VWS V13.01,2013-06-04 00:44:00,
2013-06-03 20:49:00,78.1,70.3,29.61,North,0,0.0,0.0,77,0.06,,---,0.12,VWS V13.01,2013-06-04 00:49:00,
2013-06-03 20:59:00,78.1,70.3,29.62,North,0,0.0,0.0,77,0.06,,---,0.12,VWS V13.01,2013-06-04 00:59:00,
2013-06-03 21:04:00,78.1,70.3,29.62,North,0,0.0,0.0,77,0.06,,---,0.12,VWS V13.01,2013-06-04 01:04:00,
2013-06-03 21:09:00,78.1,70.3,29.62,North,0,0.0,0.0,77,0.06,,---,0.12,VWS V13.01,2013-06-04 01:09:00,
2013-06-03 21:19:00,78.1,70.3,29.63,North,0,0.0,0.0,77,0.04,,---,0.12,VWS V13.01,2013-06-04 01:19:00,
2013-06-03 21:29:00,78.3,70.5,29.63,North,0,0.0,0.0,77,0.02,,---,0.12,VWS V13.01,2013-06-04 01:29:00,
2013-06-03 21:39:00,78.1,70.3,29.63,North,0,0.0,0.0,77,0.00,,---,0.12,VWS V13.01,2013-06-04 01:39:00,
2013-06-03 21:49:00,77.9,70.5,29.63,NNE,22,0.9,0.9,78,0.00,,---,0.12,VWS V13.01,2013-06-04 01:49:00,
2013-06-03 21:54:00,77.7,70.3,29.64,North,0,0.0,1.1,78,0.00,,---,0.12,VWS V13.01,2013-06-04 01:54:00,
2013-06-03 22:04:00,77.7,70.3,29.64,NNE,22,0.7,1.6,78,0.00,,---,0.12,VWS V13.01,2013-06-04 02:04:00,
2013-06-03 22:09:00,77.7,70.3,29.64,NNE,22,0.0,0.7,78,0.00,,---,0.12,VWS V13.01,2013-06-04 02:09:00,
2013-06-03 22:19:00,77.5,70.1,29.65,NNE,22,0.0,0.0,78,0.00,,---,0.12,VWS V13.01,2013-06-04 02:19:00,
2013-06-03 22:24:00,77.5,70.1,29.65,NNE,22,0.0,0.0,78,0.00,,---,0.12,VWS V13.01,2013-06-04 02:24:00,
2013-06-03 22:34:00,77.7,70.3,29.66,NNE,22,0.0,0.0,78,0.00,,---,0.12,VWS V13.01,2013-06-04 02:34:00,
2013-06-03 22:44:00,77.7,70.3,29.67,NNE,22,0.0,0.0,78,0.00,,---,0.12,VWS V13.01,2013-06-04 02:44:00,
2013-06-03 22:54:00,77.9,70.5,29.67,NNE,22,0.0,0.0,78,0.00,,---,0.12,VWS V13.01,2013-06-04 02:54:00,
2013-06-03 23:04:00,78.1,70.7,29.68,NNE,22,0.0,0.0,78,0.00,,---,0.12,VWS V13.01,2013-06-04 03:04:00,
2013-06-03 23:14:00,78.1,70.7,29.68,NNE,22,0.0,0.0,78,0.00,,---,0.12,VWS V13.01,2013-06-04 03:14:00,
2013-06-03 23:24:00,77.7,70.7,29.68,NNE,22,0.0,0.0,79,0.00,,---,0.12,VWS V13.01,2013-06-04 03:24:00,
2013-06-03 23:29:00,77.7,70.7,29.68,NNE,22,0.0,0.0,79,0.00,,---,0.12,VWS V13.01,2013-06-04 03:29:00,
2013-06-03 23:34:00,77.7,70.7,29.68,NNE,22,0.0,0.0,79,0.02,,---,0.14,VWS V13.01,2013-06-04 03:34:00,
2013-06-03 23:44:00,77.5,70.5,29.68,NNE,22,0.0,0.0,79,0.04,,---,0.16,VWS V13.01,2013-06-04 03:44:00,
2013-06-03 23:54:00,77.5,70.5,29.68,NW,315,0.0,0.0,79,0.04,,---,0.16,VWS V13.01,2013-06-04 03:54:00,
2013-06-03 23:59:00,77.5,70.5,29.68,WNW,292,0.0,0.0,79,0.04,,---,0.16,VWS V13.01,2013-06-04 03:59:00,